Wind_Speed
41 41 40 38 37 37 38 38 38 37 38 39 39 39 38 36 34 32 29 27 26 24 23 23 23 23 25 26 27 28 29 29 29 28 28 27 26 24 23 23 25 26 27
42 41 40 38 36 34 34 34 33 34 34 34 33 33 32 30 28 25 24 23 22 21 21 21 22 23 24 24 23 22 22 21 20 19 20 20 21 21 22 23 25 27 28
41 41 39 37 35 32 30 29 29 29 29 29 29 28 27 26 23 21 21 21 21 22 21 20 19 19 18 18 17 16 15 14 14 15 16 17 19 21 23 25 26 28 29
40 39 38 36 35 32 30 28 27 26 26 25 25 24 22 20 19 19 20 22 23 22 22 19 17 15 14 14 14 14 14 14 15 16 17 18 20 22 24 25 27 29 30
39 38 36 35 34 32 30 28 26 24 23 23 22 20 18 17 18 19 20 22 22 21 19 17 15 14 14 13 13 13 14 15 16 18 19 20 22 24 26 27 29 31 32
39 36 35 34 32 31 30 28 25 23 22 21 19 17 15 15 15 17 18 19 19 18 17 15 14 13 12 12 12 13 14 15 17 18 20 21 23 24 26 27 29 30 31
39 36 34 32 31 30 29 27 25 22 21 19 17 14 12 11 14 16 17 16 16 15 14 13 12 12 12 13 13 14 14 15 16 17 19 21 22 22 23 24 25 27 28
39 37 34 32 30 28 27 26 24 22 20 18 15 13 11 10 11 12 13 14 14 14 13 12 12 12 12 12 12 12 12 13 14 14 15 16 17 18 19 21 24 26 29
39 38 35 32 29 28 27 25 23 21 18 17 16 15 13 12 11 11 12 13 12 12 12 11 10 10 10 10 10 11 12 12 12 11 12 13 16 18 21 24 27 29 31
40 38 36 34 31 28 26 25 23 21 18 17 16 16 16 15 13 12 12 13 13 12 11 10 10 9 9 10 10 9 9 8 9 10 12 15 18 21 24 26 28 30 32
45 41 37 36 33 30 27 25 23 20 18 16 16 17 16 14 13 12 11 12 13 12 11 11 10 9 9 9 8 8 8 8 9 10 13 16 20 22 24 26 27 28 28
48 44 40 37 36 32 28 26 23 20 18 16 15 15 14 13 12 12 13 12 13 13 12 11 10 9 9 9 9 8 7 8 9 11 15 18 20 22 24 25 25 25 25
52 49 44 39 37 34 31 28 24 20 18 17 15 13 11 11 11 12 12 12 12 13 12 11 11 10 10 9 8 8 8 9 11 13 16 18 20 22 24 24 24 23 22
54 51 47 42 38 36 33 30 26 21 18 17 15 13 12 12 12 12 12 12 12 12 12 12 11 10 10 10 9 9 9 10 11 14 16 18 21 22 23 23 22 21 20
53 52 47 42 40 37 35 33 28 24 20 19 17 16 15 14 14 13 13 13 13 13 13 12 12 11 11 11 10 10 10 10 12 14 15 17 19 21 22 23 23 22 21
48 49 47 44 41 39 37 35 31 26 22 21 20 19 18 16 14 13 13 14 14 14 13 13 12 12 11 11 11 10 10 11 13 13 14 16 18 20 22 24 25 24 23
44 46 44 43 41 39 38 36 33 29 25 23 23 22 20 17 15 14 13 12 13 13 12 12 12 11 11 12 11 10 10 12 12 11 11 13 16 18 21 24 26 27 26
41 43 42 41 41 41 39 37 35 31 28 26 25 24 22 19 17 14 12 11 11 11 11 11 12 12 12 12 11 11 11 12 11 9 8 10 13 16 20 23 26 28 29
38 40 40 38 40 41 40 39 37 33 30 30 28 26 23 20 18 15 13 12 12 11 11 11 12 12 13 13 12 12 12 12 10 8 6 7 10 13 17 21 24 27 30
37 39 39 37 37 39 41 40 38 35 32 30 28 26 24 22 20 18 16 15 14 13 13 13 13 13 14 14 14 14 13 12 11 9 6 6 8 11 15 19 22 26 29
37 38 38 37 37 38 39 40 38 35 33 31 30 28 25 23 21 19 17 16 16 15 15 15 15 15 15 16 16 16 15 14 13 11 9 8 9 12 15 19 22 25 27
37 38 36 36 36 36 37 39 39 37 34 32 30 27 25 22 20 18 16 16 17 17 17 17 17 17 16 16 17 18 17 16 15 14 13 12 13 15 17 19 22 24 27
37 37 35 35 35 35 36 37 39 38 35 32 29 26 24 21 19 17 16 17 18 18 18 18 18 17 17 17 18 18 18 18 18 17 16 16 16 17 18 19 22 25 28
36 35 35 35 33 34 34 35 37 38 36 33 29 26 24 21 19 18 17 18 18 19 19 19 18 18 17 17 17 18 18 19 19 19 18 18 18 19 19 21 23 26 29
35 34 34 33 33 32 32 33 35 36 35 33 31 28 25 21 20 19 19 19 18 18 18 18 18 17 16 17 17 17 18 18 19 20 20 20 20 21 21 23 25 27 30
35 34 34 33 31 29 28 29 31 33 34 34 31 28 25 22 21 20 18 18 17 17 17 17 16 15 15 15 16 17 18 18 19 20 20 20 21 22 23 25 27 30 33
Wind_Direction
324 324 321 315 306 299 296 296 295 293 291 289 288 287 285 283 281 277 271 265 260 257 254 250 246 242 239 239 242 245 249 250 248 246 244 244 244 244 247 253 257 258 259
319 322 321 317 310 303 298 296 296 295 294 293 292 290 286 282 277 269 260 249 241 236 231 226 225 225 226 232 238 240 242 242 243 243 247 249 251 252 255 258 260 262 263
314 318 320 317 312 306 301 299 299 299 299 299 296 294 286 279 269 255 241 232 225 221 218 216 221 228 233 238 244 247 247 247 248 250 253 256 258 260 259 260 261 262 263
310 313 316 316 312 306 301 300 301 302 302 302 301 297 285 272 258 241 228 224 223 223 225 229 237 244 248 251 251 252 254 257 261 263 264 264 264 264 264 264 264 264 264
306 308 311 313 311 305 299 299 300 302 303 305 304 298 281 265 251 237 229 224 227 231 234 237 243 252 256 255 253 253 257 262 265 266 266 266 267 267 268 268 268 268 267
299 303 305 308 308 303 297 296 298 300 301 304 304 300 283 262 244 236 232 231 235 238 239 240 245 249 251 252 254 256 259 261 264 266 268 270 271 272 273 274 274 274 275
293 296 298 301 302 299 294 292 294 296 298 301 303 305 289 267 245 237 234 238 241 239 237 243 245 246 250 253 256 260 262 263 265 269 272 273 275 276 278 280 281 282 283
288 289 291 292 294 292 288 287 287 290 294 296 297 300 297 284 260 245 240 241 241 239 240 242 243 245 250 254 255 257 260 264 267 271 272 274 278 282 286 290 292 291 290
282 282 282 283 284 283 280 278 279 281 286 288 290 290 289 284 272 254 245 239 239 239 240 238 238 241 246 251 254 257 260 262 266 268 274 284 291 295 298 299 298 296 295
272 273 274 274 274 273 270 267 267 271 275 277 282 283 281 276 266 253 243 236 233 231 230 229 231 236 244 249 251 251 250 255 266 280 294 301 306 308 308 307 306 305 303
262 263 264 265 264 261 258 255 256 260 265 268 272 275 275 268 256 244 234 229 225 222 221 223 228 233 236 238 235 237 248 267 286 300 310 315 317 318 318 317 316 313 309
252 251 253 255 253 250 246 243 245 250 256 260 263 267 266 254 243 231 223 221 220 217 213 216 221 227 229 228 233 244 263 285 299 312 321 325 328 329 328 326 324 321 315
243 243 244 246 246 242 237 234 236 242 248 251 251 252 245 235 224 218 214 213 211 209 209 212 218 223 224 229 240 253 271 289 304 317 326 331 335 335 334 333 330 326 320
236 235 236 238 239 236 230 227 228 233 239 240 236 228 220 216 213 211 209 208 209 209 210 213 217 222 230 239 245 255 272 290 307 320 328 335 339 341 342 341 338 334 327
235 232 231 231 232 230 225 220 221 225 229 228 220 211 206 207 211 211 210 211 212 212 214 218 223 229 236 242 249 259 277 298 311 320 330 339 345 349 351 353 352 347 338
234 230 228 228 227 224 220 216 215 219 222 218 212 207 204 206 211 212 211 211 212 215 219 223 228 234 241 247 253 265 285 300 309 319 333 346 354 359 3 4 2 359 351
229 224 222 222 220 218 215 211 210 212 212 208 205 206 206 209 210 210 211 215 218 221 223 227 232 237 243 249 255 267 281 291 302 317 339 355 4 9 11 11 8 5 0
227 222 219 216 214 212 210 207 205 206 204 200 201 205 208 209 209 210 215 220 224 228 230 233 236 239 243 247 253 262 271 282 295 311 340 2 11 14 15 14 12 9 6
224 219 215 213 210 208 206 203 201 201 200 197 199 202 206 208 210 215 223 230 233 236 238 240 241 241 243 246 250 257 265 273 283 296 327 359 9 10 10 10 8 8 7
219 215 212 210 208 205 204 201 199 199 198 197 198 201 206 210 215 222 229 234 238 240 242 245 246 245 246 246 248 253 258 264 272 280 299 331 347 352 354 356 357 359 360
212 210 208 207 204 202 201 200 197 197 198 198 200 204 209 214 220 227 233 237 241 243 245 247 249 249 249 249 249 251 255 260 266 271 278 296 314 324 332 339 345 349 352
204 203 202 201 199 199 199 199 195 196 198 199 202 206 211 216 222 229 236 241 244 246 248 250 252 252 253 254 253 252 254 258 263 267 272 282 294 307 317 327 335 341 344
195 196 197 195 194 195 197 198 196 196 198 200 201 204 208 214 222 231 240 247 247 247 248 251 252 254 256 256 255 251 253 256 260 265 271 277 286 297 308 318 326 333 337
185 188 190 190 191 191 195 198 197 197 199 202 204 206 210 217 225 236 246 249 248 247 248 250 252 256 257 256 255 253 254 256 260 265 270 277 284 292 301 311 318 325 329
177 181 183 185 185 187 194 198 198 199 202 205 209 211 213 221 232 244 249 248 247 248 248 248 251 255 257 257 257 257 259 262 263 266 270 276 283 290 298 306 314 321 326
170 174 178 180 182 186 190 194 196 199 203 206 211 214 218 227 236 242 245 246 246 245 243 245 249 254 255 256 259 260 263 266 268 268 270 276 284 291 297 304 312 318 322
Height
5768 5762 5755 5749 5743 5739 5736 5733 5731 5728 5725 5723 5721 5719 5718 5716 5716 5715 5715 5716 5717 5717 5718 5719 5720 5722 5724 5726 5728 5730 5731 5733 5734 5736 5737 5739 5741 5743 5746 5749 5751 5753 5755
5761 5755 5749 5743 5737 5732 5728 5725 5722 5719 5716 5713 5711 5709 5707 5706 5706 5706 5707 5708 5710 5711 5711 5712 5714 5716 5718 5720 5722 5723 5725 5726 5728 5729 5731 5732 5735 5737 5739 5741 5743 5744 5745
5754 5748 5743 5737 5731 5727 5722 5718 5715 5712 5709 5706 5703 5701 5699 5698 5698 5699 5700 5702 5703 5704 5705 5706 5708 5710 5712 5714 5716 5718 5720 5721 5722 5724 5726 5728 5729 5731 5732 5733 5735 5736 5737
5746 5740 5736 5730 5725 5721 5717 5713 5709 5706 5703 5700 5697 5694 5692 5691 5692 5693 5694 5696 5697 5698 5700 5701 5703 5705 5708 5710 5711 5713 5715 5716 5718 5719 5721 5722 5724 5725 5725 5726 5727 5728 5728
5737 5732 5728 5723 5719 5714 5711 5707 5704 5701 5698 5695 5692 5689 5687 5686 5687 5688 5689 5690 5691 5693 5695 5697 5700 5702 5704 5706 5707 5709 5710 5712 5713 5715 5715 5716 5717 5718 5719 5719 5719 5719 5718
5727 5723 5719 5715 5711 5708 5705 5702 5699 5696 5693 5691 5688 5686 5683 5682 5682 5683 5684 5686 5687 5689 5691 5693 5696 5698 5700 5701 5703 5704 5706 5707 5709 5709 5710 5711 5711 5711 5711 5711 5710 5710 5709
5715 5713 5710 5707 5704 5701 5698 5695 5693 5691 5688 5686 5684 5682 5680 5679 5679 5680 5681 5682 5684 5686 5688 5690 5692 5694 5695 5697 5698 5700 5701 5703 5704 5705 5705 5706 5705 5704 5704 5703 5702 5701 5699
5704 5701 5699 5697 5695 5693 5691 5689 5687 5685 5683 5682 5680 5679 5678 5677 5677 5677 5678 5679 5680 5682 5684 5686 5688 5690 5692 5693 5695 5696 5698 5699 5700 5700 5700 5700 5699 5698 5697 5695 5694 5692 5689
5691 5690 5688 5687 5685 5684 5683 5682 5680 5679 5678 5677 5676 5676 5675 5675 5675 5674 5675 5676 5678 5679 5681 5683 5685 5687 5689 5690 5692 5693 5694 5695 5695 5695 5695 5694 5693 5691 5689 5688 5685 5682 5679
5677 5677 5676 5676 5675 5674 5674 5674 5674 5673 5672 5671 5671 5672 5672 5672 5672 5671 5672 5673 5674 5676 5679 5681 5683 5684 5685 5687 5688 5689 5690 5691 5691 5690 5689 5688 5686 5684 5681 5679 5675 5671 5667
5660 5662 5663 5664 5664 5664 5665 5666 5666 5666 5665 5665 5666 5667 5668 5668 5668 5668 5669 5670 5671 5673 5676 5678 5680 5681 5682 5683 5685 5686 5686 5686 5686 5685 5684 5682 5680 5677 5674 5670 5666 5662 5658
5641 5644 5648 5650 5651 5652 5654 5657 5658 5659 5659 5659 5660 5662 5663 5664 5665 5665 5666 5667 5668 5671 5673 5675 5677 5678 5680 5681 5682 5682 5682 5682 5682 5681 5679 5677 5674 5671 5667 5663 5659 5655 5651
5618 5624 5629 5634 5637 5640 5643 5647 5650 5651 5652 5653 5654 5656 5658 5660 5662 5663 5663 5664 5666 5668 5670 5672 5674 5675 5677 5678 5678 5679 5679 5679 5678 5676 5675 5672 5669 5666 5662 5658 5654 5650 5646
5594 5603 5610 5617 5623 5627 5631 5637 5641 5644 5645 5646 5648 5651 5654 5657 5659 5661 5662 5663 5664 5666 5667 5669 5671 5672 5673 5674 5675 5675 5675 5675 5674 5673 5671 5668 5665 5661 5658 5653 5649 5644 5640
5573 5583 5591 5600 5608 5614 5620 5626 5632 5636 5638 5640 5642 5645 5649 5653 5656 5658 5659 5660 5662 5663 5665 5666 5668 5669 5670 5671 5672 5672 5672 5671 5670 5669 5667 5664 5661 5658 5653 5649 5644 5640 5636
5555 5565 5575 5585 5594 5601 5608 5615 5622 5627 5631 5634 5637 5640 5644 5648 5652 5654 5656 5657 5659 5661 5662 5663 5664 5666 5666 5667 5668 5668 5668 5668 5667 5666 5663 5661 5658 5654 5650 5645 5641 5637 5632
5540 5550 5560 5570 5580 5589 5597 5605 5612 5619 5623 5627 5631 5635 5639 5644 5647 5650 5652 5654 5656 5657 5658 5660 5661 5662 5662 5663 5664 5664 5665 5665 5664 5662 5660 5657 5655 5651 5647 5643 5639 5634 5629
5528 5537 5548 5557 5568 5578 5586 5595 5603 5610 5615 5620 5625 5629 5634 5639 5643 5646 5649 5651 5652 5653 5655 5656 5657 5658 5659 5659 5660 5661 5662 5661 5660 5658 5656 5654 5652 5649 5645 5641 5637 5633 5628
5518 5527 5538 5547 5557 5567 5577 5585 5594 5602 5608 5613 5618 5623 5628 5633 5638 5641 5644 5646 5648 5649 5650 5652 5653 5654 5655 5655 5656 5658 5658 5658 5656 5655 5653 5651 5649 5646 5643 5640 5636 5632 5627
5509 5519 5529 5538 5548 5558 5568 5577 5586 5595 5602 5607 5613 5618 5623 5628 5632 5636 5639 5641 5643 5645 5646 5647 5648 5649 5650 5651 5652 5653 5654 5653 5652 5651 5649 5648 5646 5644 5641 5638 5635 5630 5626
5501 5511 5522 5532 5541 5551 5560 5570 5579 5589 5596 5602 5607 5613 5618 5623 5627 5630 5633 5636 5638 5639 5641 5642 5643 5645 5646 5646 5647 5648 5648 5648 5648 5647 5646 5644 5642 5640 5638 5636 5632 5628 5624
5494 5506 5516 5526 5536 5546 5555 5564 5574 5583 5590 5596 5602 5607 5613 5617 5621 5625 5628 5630 5632 5634 5636 5637 5638 5639 5640 5641 5642 5642 5642 5642 5642 5642 5641 5640 5638 5637 5635 5632 5629 5625 5621
5490 5502 5513 5523 5533 5542 5551 5560 5569 5577 5585 5591 5597 5602 5607 5612 5616 5619 5622 5624 5626 5628 5630 5632 5633 5634 5635 5635 5636 5636 5637 5637 5637 5637 5636 5635 5634 5632 5630 5628 5625 5622 5618
5488 5500 5511 5521 5530 5540 5549 5557 5565 5573 5580 5586 5592 5598 5603 5607 5610 5614 5616 5619 5621 5623 5625 5626 5627 5628 5628 5629 5629 5630 5630 5631 5631 5631 5631 5630 5629 5627 5625 5623 5621 5617 5613
5489 5500 5511 5521 5530 5539 5547 5554 5562 5569 5576 5582 5587 5593 5598 5602 5605 5608 5611 5613 5615 5617 5619 5620 5622 5622 5623 5623 5623 5624 5624 5624 5625 5625 5625 5624 5623 5621 5619 5617 5615 5611 5607
5491 5502 5512 5522 5530 5538 5545 5552 5559 5565 5572 5577 5583 5588 5593 5598 5601 5604 5606 5608 5610 5612 5614 5615 5616 5617 5618 5618 5618 5618 5618 5619 5619 5618 5618 5618 5617 5615 5613 5611 5608 5604 5601